星链-34005 (STARLINK-34005)

导读 | 豆包AI

STARLINK-34005是美国SpaceX公司星链(Starlink)低轨卫星互联网星座的成员,于2025年5月13日发射升空。作为星链二代卫星,它服务全球卫星互联网接入,搭载相控阵天线与激光星间链路,可提供高速低延迟通信,既覆盖偏远地区网络需求,也为城市提供竞争性互联网服务,进一步拓展了星链星座的全球覆盖能力。

Basic Information
目录编号:
63935
目录名称:
STARLINK-34005
国际标识:
2025-098K
轨道中心:
EARTH
卫星名称:
星链-34005
卫星全名:
星链-34005 (STARLINK-34005)
卫星状态:
在轨 (已飞行305 天)
发射日期:
2025-05-13 UTC
国别 :
美国 (US)
星等 :
--
Orbit Information
数据来源 国际轨道数据 AOE轨道数据
星历时间 2026-03-14T14:22:55+0800
15小时前
查看轨道信息
2026-03-09T09:00:00+0800
5天前
查看轨道信息
半长轴 6948.708km 6950.137km
偏心率 0.0004878 0.0002797
轨道倾角 70.000° 69.997°
近地点辐角 283.182° 256.928°
升交点赤经 263.083° 276.256°
平近点角 76.880° 10.638°
近地点 567.181km 570.056km
远地点 573.961km 573.944km
周期 96.076分钟 96.106分钟
每日圈数 14.988104 14.983483
Detailed Information
固有亮度:
5
最大亮度:
2.5
卫星平台:
Starlink V1.0
覆盖范围:
全球
运营商:
太空探索技术公司
运营商所在国:
美国
制造商(研发单位):
太空探索技术公司
制造商所在国:
美国
使用方式:
暂无
Satellite Introduction
Starlink 计划是 SpaceX 推出的全球卫星互联网项目,通过发射低轨道卫星,为全球尤其是偏远地区提供高速、低延迟的互联网服务。自 2019 年起,Starlink 已部署数千颗卫星,旨在缩小全球数字鸿沟,推动互联网普及。该项目还为军事、航空等行业提供通信支持,带来广泛经济效益。
2D Orbit Map
3D Orbit Map
Orbit Altitude Analysis Chart
Orbit Inclination Analysis Chart
Orbit Comprehensive Analysis Chart
View Comprehensive Chart